Location: Vanderbilt Beach
(26.2700°N, 81.7900°W)
Time: 06:13:47
(UTC-04:00)

N. Korean satellite - Visible Passes

Search period start: 30 September 2020 00:00
Search period end: 10 October 2020 00:00
Orbit: 455 x 503 km, 97.2° (Epoch: 29 September)

Date Brightness Start Highest point End Pass type
(mag) Time Alt. Az. Time Alt. Az. Time Alt. Az.
01 Oct 7.4 06:39:24 10° NNE 06:42:52 54° E 06:46:16 10° S visible
02 Oct 9.4 06:14:02 10° NE 06:16:47 21° E 06:19:28 10° SSE visible
04 Oct 6.4 06:54:30 10° N 06:58:01 81° W 07:01:28 10° SSW visible
05 Oct 8.3 06:28:43 10° NNE 06:31:57 35° E 06:35:09 10° SSE visible
06 Oct 9.8 06:03:49 10° ENE 06:05:49 15° E 06:07:48 10° SE visible
08 Oct 6.9 06:43:36 10° NNE 06:47:04 65° E 06:50:27 10° S visible
09 Oct 9.1 06:18:05 10° NE 06:20:57 24° E 06:23:47 10° SSE visible
